Regional Weather Roundup
Issued by NWS Charleston, SC

Current Version | Previous Version | Graphics & Text | Print | Product List | Glossary On
Versions: 1 2 3 4 5 6 7 8 9 10 11 12 13 14 15 16 17 18 19 20 21 22 23 24 25 26 27 28 29 30 31 32 33 34 35 36 37 38 39 40 41 42 43 44 45 46 47 48 49 50
000 ASUS42 KCHS 300527 RWRCHS REGIONAL WEATHER ROUNDUP NATIONAL WEATHER SERVICE CHARLESTON SC 100 AM EDT THU JUL 30 2015 NOTE: "FAIR" INDICATES FEW OR NO CLOUDS BELOW 12,000 FEET WITH NO SIGNIFICANT WEATHER AND/OR OBSTRUCTIONS TO VISIBILITY. NOT ALL STATIONS ARE QUALITY CONTROLLED BY THE NATIONAL WEATHER SERVICE. USE DATA WITH CAUTION...ESPECIALLY DEWPOINT OBSERVATIONS. SCZ027-030-031-034>040-042>050-300600- ...SOUTHEAST SOUTH CAROLINA... CITY SKY/WX TMP DP RH WIND PRES REMARKS N CHARLESTON PTCLDY 78 74 87 CALM 29.97S WATERFRONT PRK N/A 82 78 88 VRB3 29.94S HX 91 MOUNT PLEASANT FAIR 77 75 94 NW3 29.97S JOHNS ISLAND FAIR 77 75 94 CALM 29.97S PINOPOLIS NOT AVBL MONCKS CORNER FAIR 75 72 88 CALM 29.98S SUMMERVILLE FAIR 73 73 100 CALM 29.98F BEAUFORT MCAS PTCLDY 81 78 91 S3 29.98R BEAUFORT ARPT FAIR 79 79 100 CALM 29.97F HILTON HEAD IS CLEAR 81 79 94 CALM 29.98F WALTERBORO CLEAR 79 73 83 CALM 29.99S ALLENDALE FAIR 81 77 89 CALM 29.99R ...SOUTHERN MIDLANDS AND PEE DEE... CITY SKY/WX TMP DP RH WIND PRES REMARKS GEORGETOWN NOT AVBL KINGSTREE NOT AVBL ORANGEBURG MOCLDY 80 74 81 W3 29.99R BARNWELL FAIR 82 75 78 S3 30.00S AIKEN DRIZZLE 75 70 83 S5 30.03S MANNING FAIR 73 70 88 CALM 29.98S COLUMBIA PTCLDY 81 73 76 SW6 29.98R SUMTER CLEAR 80 70 71 SE3 29.96F FLORENCE CLEAR 78 70 76 CALM 29.98S MYRTLE BEACH PTCLDY 79 72 78 N3 29.99R N MYRTLE BEACH CLEAR 75 72 90 N3 29.97S $$ GAZ063-065-086>088-099>101-113>116-118-119-134>141-150-300600- ...SOUTHEAST GEORGIA... CITY SKY/WX TMP DP RH WIND PRES REMARKS SAVANNAH ARPT PTCLDY 79 75 89 W3 29.98S HUNTER AAF CLEAR 79 79 100 CALM 29.96S FORT STEWART CLEAR 78 73 84 CALM 29.96F STATESBORO PTCLDY 79 75 87 SW3 29.98F SYLVANIA PTCLDY 80 76 87 CALM 30.00S CLAXTON FAIR 79 73 83 W3 29.99S ...CSRA...CENTRAL AND FAR SOUTHEAST GEORGIA... CITY SKY/WX TMP DP RH WIND PRES REMARKS THOMSON MOCLDY 77 77 100 CALM 30.03S AUGUSTA-BUSH HVY RAIN 78 76 93 SE8 29.99R VSB 1 AUGUSTA-DANIEL CLOUDY 82 74 76 E9 30.01R SWAINSBORO RAIN N/A N/A N/A S3 30.01R VIDALIA LGT RAIN 77 73 88 CALM 30.01R EASTMAN MOCLDY 79 79 100 S6 30.02R HAZLEHURST CLOUDY 78 78 100 CALM 29.99S ALMA MOCLDY 75 74 96 CALM 29.99R WAYCROSS MOCLDY 78 78 99 CALM 29.97F JESUP FAIR 79 77 94 W3 29.98S BAXLEY FAIR 77 73 88 N3 30.00R BRUNSWICK CLEAR 77 75 94 W5 29.98S SAINT SIMONS CLEAR 79 76 90 W3 29.97F $$ SCZ027-028-034-036>038-045-046-048>050-GAZ119-141-300600- ...LAKE AND SUPPLEMENTAL COASTAL OBSERVATIONS... STATION/POSITION TIME TEMP WIND PRES WAVE SWELL AIR SEA DIR/SP/G HT/PER HT/PER/DIR (UTC) (F) (DEG/KT/KT) (MB) (FT/S) (FT/S/D) UPR LAKE MARION NOT AVBL WINYAH BAY 0400 81 80/ 6 1014.0 LAKE MURRAY 0400 84 360/ 2/ 4 1013.9F ACE BASIN NERRS NOT AVBL FORT PULASKI 0500 81 N/A SAPELO ISLAND 0500 80 260/ 4 1015.0S $$ ANZ835-935-AMZ111-154-330-350-352-354-370-450-454-472-300600- ...C-MAN AND BUOY OBSERVATIONS... STATION/POSITION TIME TEMP WIND PRES WAVE SWELL AIR SEA DIR/SP/G HT/PER HT/PER/DIR (UTC) (F) (DEG/KT/KT) (MB) (FT/S) (FT/S/D) BUOY 41004 0450 83 84 50/ 8/ 10 1013.9R 3/ 7 3/ 7 BUOY 41008 0450 81 83 330/ 2/ 4 1015.3R 2/ 7 2/100/ 7 FOLLY BEACH CMAN 0500 81 60/ 2/ 3 1015.0R CAPERS NEARSHORE NOT AVBL FRIPP NEARSHORE NOT AVBL STATION/POSITION TIME TEMP WIND PRES WAVE SWELL AIR SEA DIR/SP/G HT/PER HT/PER/DIR (UTC) (F) (DEG/KT/KT) (MB) (FT/S) (FT/S/D) 5E ST. MARYS GA 0421 83 N/A 2/11 FRYING PAN BUOY 0450 83 84 40/ 10/ 12 1014.5R 4/ 6 3/100/ 6 BUOY 41025 0450 83 85 130/ 10/ 12 1014.9F 4/ 6 3/110/ 6 CAPE LOOKOUT NC 0500 81 40/ 9/ 10 1013.9F BUOY 41002 0450 82 82 200/ 19/ 23 1015.2F 7/ 7 BUOY 41010 0420 84 84 250/ 16/ 17 1014.1R ST AUGUSTINE FL 0500 76 82 300/ 7/ 9 1015.6F $$

USA.gov is the U.S. government's official web portal to all federal, state and local government web resources and services.